Location: Newark
(39.5667°N, 8.9833°E)
Time: 13:34:02
(UTC+00:00)

A-11 Canister half - Visible Passes

Search period start: 22 October 2019 00:00
Search period end: 01 November 2019 00:00
Orbit: 1527 x 1682 km, 47.3° (Epoch: 21 October)

Date Brightness Start Highest point End Pass type
(mag) Time Alt. Az. Time Alt. Az. Time Alt. Az.
22 Oct 10.5 03:28:46 14° SSW 03:28:46 14° SSW 03:30:40 10° SSW visible
22 Oct 8.9 18:32:41 10° SW 18:42:13 82° SSE 18:46:27 38° ENE visible
22 Oct 9.8 20:38:34 10° W 20:44:45 42° WNW 20:44:45 42° WNW visible
23 Oct 10.8 03:09:09 11° SSW 03:09:09 11° SSW 03:09:27 10° S visible
23 Oct 8.9 18:11:04 10° SW 18:20:36 79° SE 18:26:08 29° ENE visible
23 Oct 9.5 20:16:51 10° W 20:24:27 52° NW 20:24:27 52° NW visible
24 Oct 8.9 17:49:27 10° SW 17:58:58 77° SE 18:05:46 21° ENE visible
24 Oct 9.2 19:55:09 10° W 20:04:04 58° NNW 20:04:04 58° NNW visible
24 Oct 11.1 22:01:27 10° WNW 22:02:22 13° WNW 22:02:22 13° WNW visible
25 Oct 9.0 17:27:50 10° SW 17:37:22 74° SE 17:45:21 15° ENE visible
25 Oct 9.1 19:33:26 10° W 19:42:46 59° NNW 19:43:39 57° N visible
25 Oct 10.8 21:39:47 10° WNW 21:41:57 19° WNW 21:41:57 19° WNW visible
26 Oct 9.1 17:06:14 10° SW 17:15:46 71° SE 17:24:54 11° ENE visible
26 Oct 9.2 19:11:43 10° W 19:21:05 60° NNW 19:23:12 51° NNE visible
26 Oct 10.5 21:18:07 10° WNW 21:21:29 25° WNW 21:21:29 25° WNW visible
27 Oct 9.1 16:44:37 10° SW 16:54:09 68° SE 17:03:25 10° ENE visible
27 Oct 9.2 18:50:01 10° W 18:59:26 62° NNW 19:02:43 42° NE visible
27 Oct 10.2 20:56:26 10° WNW 21:01:00 31° NW 21:01:00 31° NW visible
28 Oct 9.2 18:28:18 10° W 18:37:45 63° NNW 18:42:12 34° NE visible
28 Oct 9.9 20:34:45 10° WNW 20:40:30 38° NW 20:40:30 38° NW visible
29 Oct 9.2 18:06:35 10° W 18:16:05 64° NNW 18:21:40 27° NE visible
29 Oct 9.6 20:13:04 10° WNW 20:19:58 46° NW 20:19:58 46° NW visible
30 Oct 9.2 17:44:54 10° W 17:54:26 66° NNW 18:01:08 21° ENE visible
30 Oct 9.4 19:51:23 10° WNW 19:59:25 52° NNW 19:59:25 52° NNW visible
30 Oct 11.1 21:56:58 10° WNW 21:57:43 13° WNW 21:57:43 13° WNW visible
31 Oct 9.2 17:23:11 10° WSW 17:32:45 67° NNW 17:40:36 16° ENE visible
31 Oct 9.2 19:29:41 10° WNW 19:38:53 54° N 19:38:53 54° N visible
31 Oct 10.9 21:35:20 10° WNW 21:37:10 18° WNW 21:37:10 18° WNW visible
